Location: Newark
(48.6767°N, 1.3256°E)
Time: 01:54:47
(UTC+00:00)

ISS - Pass Details

Date: 29 November 2019
Orbit: 411 x 421 km, 51.6° (Epoch: 10 December)

Event Time Altitude Azimuth Distance (km) Brightness Sun altitude
Rises 16:34:18 0° 241° (WSW) 2,346 3.0 -5.4°
Reaches altitude 10° 16:36:23 10° 239° (WSW) 1,488 0.9 -5.7°
Maximum altitude 16:39:43 71° 155° (SSE) 444 -3.6 -6.2°
Drops below altitude 10° 16:43:04 10° 71° (ENE) 1,501 -1.6 -6.7°
Enters shadow 16:43:19 - 71° (ENE) 1,599 -1.5 -6.7°
